San Angelo, TX

6:24 PM CDT on March 27, 2017 (GMT -0500)
San Angelo Regional-Mathis

Weather History for KSJT - April, 2014

Change the Weather History Date:

Tuesday, April 1, 2014

  Actual Average Record
Temperature  
Mean Temperature 73 °F 62 °F  
Max Temperature 91 °F 76 °F 99 °F (1946)
Min Temperature 54 °F 48 °F 23 °F (1926)
Degree Days  
Heating Degree Days 0 5  
Month to date heating degree days 0 5  
Since 1 July heating degree days 2402 2223  
Cooling Degree Days 8 2  
Month to date cooling degree days 8 2  
Year to date cooling degree days 66 40  
Growing Degree Days 22 (Base 50)    
Moisture  
Dew Point 52 °F    
Average Humidity 55    
Maximum Humidity 80    
Minimum Humidity 29    
Precipitation  
Precipitation 0.00 in 0.04 in 2.20 in (1916)
Month to date precipitation 0.00 0.04  
Year to date precipitation 0.11 3.82  
Snow  
Snow 0.00 in 0.00 in T in (1949)
Month to date snowfall 0.0 0.0  
Since 1 July snowfall 1.6 2.2  
Snow Depth 0.00 in    
Sea Level Pressure  
Sea Level Pressure 29.80 in    
Wind  
Wind Speed 11 mph (SSW)    
Max Wind Speed 28 mph    
Max Gust Speed 33 mph    
Visibility 10 miles    
Events      
T = Trace of Precipitation, MM = Missing Value Source: NWS Daily Summary

Daily Weather History Graph

Daily Weather History Graph

Search for Another Location

Airport or City:

Trip Planner

Search our weather history database for the weather conditions in past years. The results will help you decide how hot, cold, wet, or windy it might be!

Date:

Astronomy

Apr. 01, 2014 Rise Set
Actual Time 7:30 AM CDT 8:01 PM CDT
Civil Twilight 7:06 AM CDT 8:25 PM CDT
Nautical Twilight 6:37 AM CDT 8:54 PM CDT
Astronomical Twilight 6:08 AM CDT 9:23 PM CDT
Moon 8:42 AM CDT (4/1) 10:16 PM CDT (4/1)
Length of Visible Light 13h 19m
Length of Day
12h 30m
Waxing Crescent, 5% of the Moon is Illuminated
Apr 1
Waxing Crescent
Apr 7
First Quarter
Apr 15
Full
Apr 22
Last Quarter
Apr 29
New

Hourly Weather History & Observations

Time (CDT) Temp. Heat Index Dew Point Humidity Pressure Visibility Wind Dir Wind Speed Gust Speed Precip Events Conditions
12:51 AM 63.0 °F - 32.0 °F 31% 29.86 in 10.0 mi SSW 8.1 mph - N/A   Clear
1:51 AM 62.1 °F - 44.1 °F 52% 29.84 in 10.0 mi WSW 6.9 mph - N/A   Clear
2:51 AM 62.1 °F - 44.1 °F 52% 29.84 in 10.0 mi SSW 5.8 mph - N/A   Clear
3:51 AM 57.9 °F - 43.0 °F 58% 29.84 in 10.0 mi SSW 9.2 mph - N/A   Clear
4:51 AM 60.1 °F - 48.0 °F 64% 29.83 in 10.0 mi WSW 8.1 mph - N/A   Clear
5:51 AM 57.0 °F - 48.9 °F 74% 29.84 in 10.0 mi SSW 3.5 mph - N/A   Clear
6:51 AM 57.0 °F - 51.1 °F 81% 29.85 in 10.0 mi SW 6.9 mph - N/A   Clear
7:51 AM 54.0 °F - 46.9 °F 77% 29.86 in 10.0 mi Calm Calm - N/A   Clear
8:51 AM 64.0 °F - 57.0 °F 78% 29.87 in 10.0 mi South 10.4 mph - N/A   Clear
9:51 AM 69.1 °F - 59.0 °F 70% 29.88 in 10.0 mi South 13.8 mph - N/A   Clear
10:51 AM 73.0 °F - 61.0 °F 66% 29.90 in 10.0 mi South 10.4 mph - N/A   Clear
11:51 AM 79.0 °F - 61.0 °F 54% 29.88 in 10.0 mi South 10.4 mph - N/A   Clear
12:51 PM 82.0 °F 82.4 °F 60.1 °F 47% 29.84 in 10.0 mi SSW 10.4 mph - N/A   Clear
1:51 PM 86.0 °F 84.9 °F 57.0 °F 37% 29.81 in 10.0 mi SSW 13.8 mph 26.5 mph N/A   Clear
2:51 PM 89.1 °F 87.3 °F 55.9 °F 32% 29.77 in 10.0 mi SSW 20.7 mph 28.8 mph N/A   Clear
3:51 PM 90.0 °F 88.6 °F 57.0 °F 33% 29.74 in 10.0 mi SSW 21.9 mph 26.5 mph N/A   Clear
4:51 PM 90.0 °F 87.9 °F 55.0 °F 30% 29.71 in 10.0 mi SW 21.9 mph 28.8 mph N/A   Clear
5:51 PM 89.1 °F 86.7 °F 53.1 °F 29% 29.71 in 10.0 mi SSW 15.0 mph 28.8 mph N/A   Clear
6:51 PM 87.1 °F - 52.0 °F 30% 29.70 in 10.0 mi SSW 19.6 mph 24.2 mph N/A   Clear
7:51 PM 84.0 °F 83.0 °F 55.9 °F 38% 29.72 in 10.0 mi South 15.0 mph - N/A   Clear
8:51 PM 80.1 °F 80.2 °F 55.9 °F 43% 29.72 in 10.0 mi South 10.4 mph - N/A   Clear
9:51 PM 78.1 °F - 57.0 °F 48% 29.74 in 10.0 mi South 10.4 mph - N/A   Clear
10:51 PM 75.9 °F - 59.0 °F 56% 29.74 in 10.0 mi South 6.9 mph - N/A   Clear
11:51 PM 73.9 °F - 59.0 °F 59% 29.73 in 10.0 mi Calm Calm - N/A   Clear